Location: Oshawa
(43.9000°N, 78.8670°W)
Time: 06:28:36
(UTC-05:00)

Thor Agena Rocket - Visible Passes

Search period start: 09 December 2016 00:00
Search period end: 19 December 2016 00:00
Orbit: 760 x 808 km, 99.1° (Epoch: 08 December)

Date Brightness Start Highest point End Pass type
(mag) Time Alt. Az. Time Alt. Az. Time Alt. Az.
09 Dec 5.2 05:20:54 10° SSW 05:22:28 19° SSW 05:22:28 19° SSW visible
09 Dec 3.6 17:30:33 10° NNE 17:35:45 64° ESE 17:40:59 10° S visible
09 Dec 6.0 19:10:57 10° NNW 19:14:34 19° WNW 19:18:10 10° WSW visible
10 Dec 5.3 04:49:10 10° S 04:50:47 21° S 04:50:47 21° S visible
10 Dec 5.1 18:39:00 10° N 18:43:39 34° WNW 18:48:20 10° SW visible
11 Dec 5.8 04:18:02 10° SSE 04:19:06 17° SSE 04:19:06 17° SSE visible
11 Dec 5.6 05:59:26 10° SW 05:59:42 11° SW 05:59:42 11° SW visible
11 Dec 4.1 18:07:26 10° N 18:12:36 62° WNW 18:17:48 10° SSW visible
12 Dec 5.3 05:26:40 10° SSW 05:28:01 17° SSW 05:28:01 17° SSW visible
12 Dec 3.6 17:36:10 10° NNE 17:41:25 71° ESE 17:46:41 10° S visible
12 Dec 6.1 19:16:46 10° NNW 19:20:09 18° WNW 19:23:33 10° W visible
13 Dec 5.3 04:54:49 10° S 04:56:20 20° S 04:56:20 20° S visible
13 Dec 4.2 17:05:13 10° NNE 17:10:06 37° E 17:14:58 10° SSE visible
13 Dec 5.3 18:44:43 10° N 18:49:16 31° WNW 18:53:50 10° SW visible
14 Dec 5.7 04:23:36 10° SSE 04:24:40 17° SSE 04:24:40 17° SSE visible
14 Dec 4.2 18:13:06 10° N 18:18:14 56° WNW 18:23:24 10° SSW visible
15 Dec 6.3 03:52:57 10° SE 03:53:00 10° SE 03:53:00 10° SE visible
15 Dec 5.4 05:32:27 10° SSW 05:33:35 16° SSW 05:33:35 16° SSW visible
15 Dec 3.6 17:41:47 10° NNE 17:47:05 79° ESE 17:52:22 10° S visible
15 Dec 6.2 19:22:36 10° NNW 19:25:44 16° WNW 19:28:52 10° W visible
16 Dec 5.3 05:00:30 10° S 05:01:55 19° S 05:01:55 19° S visible
16 Dec 4.1 17:10:48 10° NNE 17:15:47 41° E 17:20:45 10° S visible
16 Dec 5.4 18:50:26 10° N 18:54:53 28° WNW 18:59:20 10° WSW visible
17 Dec 5.7 04:29:11 10° SSE 04:30:15 17° SSE 04:30:15 17° SSE visible
17 Dec 4.4 18:18:47 10° N 18:23:53 51° WNW 18:28:59 10° SW visible
18 Dec 6.3 03:58:27 10° SE 03:58:35 11° SE 03:58:35 11° SE visible
18 Dec 5.5 05:38:16 10° SSW 05:39:10 14° SW 05:39:10 14° SW visible
18 Dec 3.6 17:47:26 10° NNE 17:52:44 86° ESE 17:58:02 10° SSW visible
18 Dec 6.2 19:28:27 10° NNW 19:31:19 15° WNW 19:34:11 10° W visible
